SBIRS GEO-3 (USA 282)

Last updated on Tue Jun 17 2025 00:02:47 GMT+0000 (Coordinated Universal Time)

1 43162U 18009A 25167.58308647 .00000139 00000+0 00000+0 0 9997 2 43162 2.0943 352.9560 0002003 91.5469 231.1131 1.00271945 27173
UTC large
Height (km)
Speed (km/s)
/
Latitude / Longitude
Inclination (degrees)
Orbital Period (minutes)
Azimuth
Elevation
Range (km)
Doppler Factor

Next 0 passes for location: London (51.5072 / 0.1276)

Sorry there are no passes over London.